DateTimeUTC,F1_A11,F1_S11,BsB_S11,BsG_S11,BsR_S11,BbsB_S11,BbsG_S11,BbsR_S11,BaB_A11,BaG_A11,BaR_A11,Tu_S11,T_S11,Uu_S11,U_S11,P_S11,T1_A11
2021-04-22T11:00:00Z,00000200,21000000,,,,,,,0000.03,0000.14,0000.16,16.2,23.7,,00.0,0665.2,31.0
2021-04-22T11:01:00Z,00000200,21000000,,,,,,,0000.06,0000.12,0000.36,16.2,23.7,,00.0,0665.2,30.9
2021-04-22T11:02:00Z,00000200,21000000,,,,,,,0000.08,0000.05,0000.27,16.2,23.7,,00.0,0665.2,31.0
2021-04-22T11:03:00Z,00000200,61000000,,,,,,,0001.17,0001.04,0000.49,16.2,23.7,,00.0,0665.2,30.9
2021-04-22T11:04:00Z,00000200,41000000,0001.84,0001.55,0000.78,0000.19,0000.39,-000.06,0001.25,0000.93,0000.70,16.3,23.5,,00.0,0666.1,30.9
2021-04-22T11:05:00Z,00000200,01000000,0002.52,0001.82,0001.23,0000.49,0000.43,0000.37,0001.11,0000.65,0000.70,16.3,23.4,,00.0,0666.2,30.9
2021-04-22T11:06:00Z,00000200,01010000,0002.24,0002.12,0001.01,0000.50,0000.35,0000.37,0000.95,0001.13,0000.76,16.3,23.4,,00.0,0666.2,30.9
2021-04-22T11:07:00Z,00000200,01000000,0002.71,0001.78,0000.94,0000.28,0000.19,0000.04,0000.59,0000.95,0000.73,16.4,23.4,,00.0,0666.2,30.9
2021-04-22T11:08:00Z,00000200,01000000,0002.69,0001.74,0000.91,0000.25,0000.17,0000.03,0001.34,0000.95,0000.59,16.5,23.4,,00.0,0666.2,31.0
2021-04-22T11:09:00Z,00000200,01000000,0002.47,0001.95,0000.89,0000.03,0000.25,0000.08,0000.47,0000.64,0000.60,16.5,23.4,,00.0,0666.2,31.0
2021-04-22T11:10:00Z,00000200,01000000,0003.00,0001.46,0000.61,0000.11,0000.30,-000.38,0001.06,0000.86,0000.86,16.6,23.4,,00.0,0666.2,31.0
2021-04-22T11:11:00Z,00000200,01000000,0002.58,0001.84,0000.83,0000.32,0000.34,-000.01,0000.93,0000.76,0000.31,16.6,23.4,,00.0,0666.1,31.0
2021-04-22T11:12:00Z,00000200,01000000,0002.60,0001.60,0000.92,0000.24,0000.39,0000.24,0000.96,0001.13,0000.54,16.6,23.4,,00.0,0666.2,31.0
2021-04-22T11:13:00Z,00000200,01000000,0002.20,0001.90,0000.74,0000.30,0000.13,0000.06,0000.81,0000.48,0000.83,16.6,23.4,,00.0,0666.2,31.0
2021-04-22T11:14:00Z,00000200,01000000,0002.63,0001.78,0000.94,0000.35,0000.54,0000.16,0000.83,0001.17,0000.72,16.5,23.4,,00.0,0666.2,31.0
2021-04-22T11:15:00Z,00000200,01000000,0002.50,0001.80,0000.68,-000.02,0000.49,0000.05,0000.89,0000.55,0000.70,16.5,23.4,,00.0,0666.2,31.0
2021-04-22T11:16:00Z,00000200,01000000,0002.19,0001.64,0001.03,0000.25,0000.37,0000.15,0000.77,0001.01,0000.66,16.5,23.4,,00.0,0666.2,31.0
2021-04-22T11:17:00Z,00000200,01000000,0003.16,0001.51,0000.79,0000.47,0000.28,0000.47,0000.67,0000.45,0000.51,16.5,23.4,,00.0,0666.2,31.0
2021-04-22T11:18:00Z,00000200,01000000,0002.27,0001.70,0001.05,0000.40,0000.20,0000.46,0001.23,0000.85,0000.16,16.4,23.4,,00.0,0666.3,31.0
2021-04-22T11:19:00Z,00000200,01000000,0002.43,0001.52,0000.77,0000.10,0000.26,0000.46,0000.72,0000.88,0000.84,16.4,23.4,,00.0,0666.2,31.0
2021-04-22T11:20:00Z,00000200,01000000,0002.18,0001.56,0000.47,0000.38,0000.21,0000.03,0001.12,0000.87,0000.74,16.4,23.4,,00.0,0666.3,30.9
2021-04-22T11:21:00Z,00000200,01000000,0002.74,0001.77,0000.81,0000.19,0000.30,0000.12,0000.93,0000.93,0000.98,16.4,23.3,,00.0,0666.3,30.9
2021-04-22T11:22:00Z,00000200,01000000,0002.20,0001.61,0000.53,0000.37,0000.08,0000.21,0000.71,0000.78,0000.64,16.5,23.4,,00.0,0666.2,30.9
2021-04-22T11:23:00Z,00000200,01000000,0002.27,0001.87,0000.77,0000.46,0000.48,0000.28,0001.27,0000.83,0000.31,16.6,23.4,,00.0,0666.2,31.0
2021-04-22T11:24:00Z,00000200,01000000,0002.72,0001.65,0000.77,0000.08,0000.05,0000.17,0000.79,0000.89,0000.92,16.6,23.4,,00.0,0666.2,31.0
2021-04-22T11:25:00Z,00000200,01000000,0002.06,0001.48,0001.14,0000.31,0000.24,0000.32,0000.41,0000.25,0000.36,16.6,23.4,,00.0,0666.2,31.0
2021-04-22T11:26:00Z,00000200,01000000,0001.95,0001.39,0000.71,0000.87,0000.44,0000.03,0001.05,0000.93,0000.53,16.6,23.4,,00.0,0666.3,31.0
2021-04-22T11:27:00Z,00000200,01000000,0002.41,0001.53,0000.57,-000.01,0000.17,0000.12,0000.79,0000.97,0000.75,16.6,23.4,,00.0,0666.3,31.0
2021-04-22T11:28:00Z,00000200,01000000,0002.13,0001.54,0000.69,-000.33,0000.29,0000.22,0000.86,0000.62,0000.51,16.6,23.4,,00.0,0666.3,31.0
2021-04-22T11:29:00Z,00000200,01000000,0001.47,0001.41,0000.63,0000.22,0000.35,0000.27,0000.70,0001.14,0000.34,16.5,23.4,,00.0,0666.3,30.9
2021-04-22T11:30:00Z,00000200,01000000,0002.62,0001.55,0000.93,-000.12,0000.20,0000.07,0000.95,0000.46,0000.84,16.5,23.4,,00.0,0666.3,30.9
2021-04-22T11:31:00Z,00000200,01000000,0002.33,0001.50,0000.72,0000.60,0000.32,-000.14,0000.89,0000.87,0000.55,16.5,23.4,,00.0,0666.3,30.9
2021-04-22T11:32:00Z,00000200,01000000,0002.37,0001.51,0001.05,0000.85,0000.04,0000.06,0000.75,0000.38,0000.47,16.5,23.4,,00.0,0666.3,30.9
2021-04-22T11:33:00Z,00000200,01000000,0002.28,0001.35,0000.59,0000.18,0000.16,0000.08,0000.62,0001.06,0000.75,16.5,23.4,,00.0,0666.3,30.9
2021-04-22T11:34:00Z,00000200,01000000,0002.03,0001.43,0000.68,0000.20,0000.42,-000.11,0001.00,0000.60,0000.08,16.5,23.4,,00.0,0666.3,30.9
2021-04-22T11:35:00Z,00000200,01000000,0001.78,0001.48,0000.98,0000.34,0000.49,0000.29,0000.89,0000.74,0000.96,16.5,23.4,,00.0,0666.3,30.9
2021-04-22T11:36:00Z,00000200,01000000,0002.72,0001.36,0000.59,0000.33,0000.19,0000.07,0000.57,0000.80,0000.62,16.5,23.3,,00.0,0666.3,30.9
2021-04-22T11:37:00Z,00000200,01000000,0002.07,0001.45,0000.91,-000.72,0000.42,0000.15,0001.28,0001.02,0000.74,16.5,23.4,,00.0,0666.3,31.0
2021-04-22T11:38:00Z,00000200,01000000,0002.51,0001.52,0000.92,-000.03,0000.33,0000.17,0000.47,0000.30,0000.26,16.6,23.4,,00.0,0666.3,31.0
2021-04-22T11:39:00Z,00000200,01000000,0001.87,0001.58,0000.78,0000.10,0000.27,0000.33,0000.54,0000.65,0000.65,16.7,23.4,,00.0,0666.3,31.0
2021-04-22T11:40:00Z,00000200,01000000,0001.85,0001.44,0000.71,-000.21,0000.40,0000.07,0000.91,0000.87,0000.74,16.7,23.4,,00.0,0666.3,31.0
2021-04-22T11:41:00Z,00000200,01000000,0001.24,0001.47,0000.37,0000.07,0000.12,0000.01,0000.78,0000.78,0000.10,16.7,23.4,,00.0,0666.3,31.0
2021-04-22T11:42:00Z,00000200,01000000,0002.29,0001.26,0000.65,0000.15,0000.28,0000.24,0000.42,0000.46,0000.87,16.7,23.4,,00.0,0666.3,31.0
2021-04-22T11:43:00Z,00000200,01000000,0001.81,0001.50,0000.80,0000.08,0000.21,0000.17,0001.02,0000.78,0000.58,16.7,23.4,,00.0,0666.3,31.0
2021-04-22T11:44:00Z,00000200,01000000,0001.75,0001.43,0000.65,0000.54,0000.25,0000.31,0001.05,0000.99,0000.49,16.6,23.4,,00.0,0666.3,31.0
2021-04-22T11:45:00Z,00000200,01000000,0002.19,0001.36,0000.85,0000.21,0000.38,0000.23,0000.41,0000.67,0000.60,16.6,23.4,,00.0,0666.3,31.0
2021-04-22T11:46:00Z,00000200,01000000,0001.80,0001.36,0001.02,0000.15,0000.16,0000.30,0000.96,0000.46,0000.45,16.6,23.4,,00.0,0666.3,31.0
2021-04-22T11:47:00Z,00000200,01000000,0001.93,0001.31,0000.86,0000.58,0000.27,0000.08,0000.30,0000.61,0000.32,16.6,23.4,,00.0,0666.3,31.0
2021-04-22T11:48:00Z,00000200,01000000,0002.38,0001.43,0000.56,0000.22,0000.34,0000.05,0001.29,0001.07,0000.62,16.6,23.4,,00.0,0666.3,31.0
2021-04-22T11:49:00Z,00000200,01000000,0001.66,0001.45,0000.84,-000.12,0000.41,0000.23,0000.68,0000.25,0000.69,16.6,23.4,,00.0,0666.3,31.0
2021-04-22T11:50:00Z,00000200,01000000,0001.10,0001.35,0000.67,0000.07,0000.24,0000.10,0000.63,0000.57,0000.30,16.6,23.4,,00.0,0666.3,31.0
2021-04-22T11:51:00Z,00000200,01000000,0001.64,0001.37,0000.52,0000.13,0000.25,0000.26,0000.88,0000.96,0000.63,16.6,23.4,,00.0,0666.3,30.9
2021-04-22T11:52:00Z,00000200,01000000,0002.06,0001.18,0000.60,0000.25,0000.31,0000.03,0000.47,0000.41,0000.72,16.7,23.4,,00.0,0666.3,31.0
2021-04-22T11:53:00Z,00000200,01000000,0001.82,0001.38,0000.31,0000.24,0000.50,0000.01,0000.53,0000.53,0000.30,16.7,23.4,,00.0,0666.3,31.0
2021-04-22T11:54:00Z,00000200,01000000,0001.81,0001.37,0000.49,0000.42,0000.21,0000.37,0001.17,0000.83,0000.28,16.7,23.5,,00.0,0666.3,31.0
2021-04-22T11:55:00Z,00000200,01000000,0002.37,0001.34,0000.59,-000.08,0000.39,0000.06,0000.19,0000.60,0000.58,16.7,23.5,,00.0,0666.3,31.0
2021-04-22T11:56:00Z,00000200,01000000,0002.30,0001.05,0000.62,0000.24,0000.24,0000.49,0000.85,0000.47,0000.71,16.7,23.5,,00.0,0666.3,31.0
2021-04-22T11:57:00Z,00000200,41000000,,,,,,,-000.59,-000.37,-000.60,16.8,23.5,,00.0,0666.3,31.0
2021-04-22T11:58:00Z,00000200,61000000,,,,,,,0000.62,0000.23,0000.18,16.5,23.6,,00.0,0665.3,31.0
2021-04-22T11:59:00Z,00000200,21000000,,,,,,,0000.23,0000.47,0000.22,16.5,23.7,,00.0,0665.3,31.0
